SCP
0 -0 -0 -0 0 0 0 -0 0 0 0 0 0 0 0 0 -0 0 0 0 0 0 0 0 0 0 0 0 0 0 0 0 0 0 0 0 0 0
0 -0 0 0 0 0 0 0 0 0 0 0 0 0 0 0 0 0 0 0 0 0 0 0 0 0 0 0 0 0 0 0 0 0 0 0 0 0
0 0 -0 0 0 0 0 0 0 0 0 0 0 1 1 0 0 0 0 0 0 0 0 0 0 0 0 0 0 0 0 0 0 0 0 0 0 0
0 0 0 0 0 0 1 0 0 0 0 0 1 1 1 1 1 1 0 0 0 0 0 0 0 0 0 0 0 0 0 0 0 0 0 0 0 0
0 0 0 0 0 0 0 1 1 1 1 1 1 1 1 1 1 1 1 1 0 0 0 0 0 0 0 0 0 0 0 0 0 0 0 0 0 0
0 0 1 1 1 1 1 1 1 1 1 2 1 0 2 1 1 1 1 1 0 0 0 0 0 0 0 0 0 0 0 0 0 0 0 0 0 0
0 1 1 1 1 1 2 2 1 1 2 1 1 1 1 2 2 1 1 1 0 1 1 0 0 0 0 0 0 0 0 0 0 0 0 0 0 0
0 0 1 1 1 1 1 1 2 1 1 1 1 1 1 1 3 2 1 1 1 2 1 0 1 0 0 0 0 0 0 0 0 0 0 0 0 0
1 1 1 2 1 2 0 1 1 1 1 1 1 1 3 2 2 4 4 4 2 2 1 1 1 0 0 0 0 0 0 0 0 0 0 0 0 0
2 1 2 2 3 3 3 1 1 1 1 2 2 2 5 7 6 5 3 3 3 2 1 0 0 0 0 0 0 0 0 0 0 0 0 0 0 0
4 6 2 1 2 2 4 4 2 1 1 1 3 2 2 3 6 4 3 2 2 1 1 0 0 0 0 0 0 0 0 0 0 0 0 0 0 0
5 1 7 7 6 2 3 5 6 3 2 1 1 0 0 1 1 3 2 1 2 1 0 0 0 0 0 0 0 0 0 0 0 0 0 0 0 0
4 2 3 3 3 2 1 8 6 8 4 3 1 0 0 0 0 0 1 1 1 0 0 0 0 0 0 0 0 0 0 0 0 0 0 0 0 0
3 3 3 3 2 1 0 4 6 7 9 2 1 0 0 0 0 0 0 0 0 0 0 0 0 0 0 0 0 0 0 0 0 0 0 0 0 0
4 3 1 2 0 0 0 0 0 4 5 3 2 1 0 0 0 0 0 0 0 0 0 0 0 0 0 0 0 0 0 0 0 0 0 0 0 0
3 2 2 3 2 1 0 0 1 6 3 2 0 0 0 0 0 1 0 0 0 0 0 0 0 0 0 0 0 0 0 0 0 0 0 0 0 0
5 5 6 5 3 2 0 0 1 4 2 0 0 0 0 1 0 0 0 0 0 0 0 0 0 0 0 0 0 0 0 0 0 0 0 0 0 0
5 6 2 1 1 1 0 0 0 1 1 0 0 0 0 0 0 0 0 0 0 0 0 0 0 0 0 0 0 0 0 0 0 0 0 0 0 0
5 1 0 0 0 0 0 0 0 0 0 0 0 0 0 0 0 0 0 0 0 0 0 0 0 0 0 0 0 0 0 0 0 0 0 0 0 0
0 0 0 0 0 0 0 0 0 0 0 0 0 0 0 0 0 0 0 0 0 0 0 0 0 0 0 0 0 0 0 0 0 0 0 0 0 0
0 0 0 0 0 0 0 0 0 0 0 0 0 0 0 0 0 0 0 0 0 0 0 0 0 0 0 0 0 0 0 0 0 0 0 0 0 0
0 0 0 0 0 0 0 0 0 0 0 0 0 0 -0 0 0 0 0 0 0 0 0 0 0 0 0 0 0 0 0 0 0 0 0 0 0 0
0 0 0 0 0 0 0 0 0 0 0 0 0 0 0 -0 0 0 0 0 0 0 0 0 0 0 0 0 0 0 0 0 0 0 0 0 0 0
Wind_Speed_500mb
32 32 35 30 21 22 20 20 14 13 27 29 26 25 19 21 26 33 34 36 30 32 32 31 30 31 31 31 32 33 34 33 33 34 35 37 41 38
41 39 37 37 31 28 26 23 21 18 13 8 18 21 22 21 23 25 29 35 38 38 35 30 31 30 30 29 32 36 36 35 34 36 38 41 40 41
53 46 45 37 39 33 34 32 28 24 25 17 16 24 24 24 29 32 33 34 26 20 21 24 26 28 29 30 34 38 37 36 36 37 40 41 44 46
55 56 52 50 48 44 41 37 35 33 32 31 25 26 33 29 25 31 38 23 26 32 25 28 31 34 32 32 35 39 38 37 38 39 40 41 46 51
63 61 58 63 57 52 56 51 44 41 43 45 41 38 40 36 28 25 23 18 20 37 38 32 33 28 30 37 36 28 25 30 33 34 35 40 45 43
67 73 67 65 66 61 59 61 56 48 50 55 49 45 32 37 35 28 28 27 26 24 30 30 31 30 31 32 31 27 25 25 30 33 39 48 47 39
71 77 80 78 74 69 64 61 62 66 58 54 51 44 39 42 47 41 37 25 28 27 30 29 35 37 32 32 31 32 33 31 32 36 45 54 54 52
78 79 86 86 83 76 69 68 65 65 73 71 60 54 46 50 43 41 34 28 33 27 32 36 35 35 30 32 33 34 31 31 30 37 47 52 54 53
82 83 87 93 92 90 86 80 75 71 72 69 70 66 55 49 49 50 44 47 50 41 44 47 35 37 32 31 31 25 30 35 36 39 45 39 38 39
90 90 91 92 88 92 91 91 88 85 85 79 74 66 62 54 57 57 59 57 55 51 44 48 40 35 29 28 30 32 36 38 33 42 40 38 37 36
100 97 102 103 103 95 90 92 92 93 85 88 86 81 73 71 62 58 67 56 46 43 31 44 38 30 27 29 28 31 35 34 37 36 40 36 35 29
105 92 111 110 113 107 104 100 102 104 96 92 99 97 92 85 66 58 63 55 41 34 40 49 44 27 34 29 28 29 28 26 28 30 29 34 30 27
111 107 98 99 104 111 108 109 111 102 104 98 97 106 108 94 70 63 71 63 66 52 51 37 38 40 40 29 26 26 28 31 30 34 37 28 31 34
100 77 73 73 78 80 101 111 105 104 104 106 102 111 120 88 56 77 64 71 65 50 41 43 47 46 42 37 38 31 24 28 28 28 25 32 29 26
103 104 76 57 64 65 75 80 97 102 95 88 79 59 42 55 89 75 68 57 55 51 45 51 42 39 38 38 35 26 25 29 23 26 31 35 40 35
88 86 96 98 103 89 79 67 68 96 95 106 92 73 64 51 64 73 74 58 49 48 56 54 40 37 29 30 26 23 28 30 18 25 35 38 38 22
56 62 67 72 81 93 93 96 93 78 86 98 102 81 62 58 66 71 44 48 39 53 54 42 29 25 20 16 15 12 11 13 22 27 39 38 22 34
58 58 54 56 62 68 75 77 85 91 101 108 90 44 52 77 59 46 49 50 48 41 41 30 27 26 18 16 16 23 13 23 34 39 28 27 40 42
59 62 59 57 56 56 48 47 66 74 86 62 47 48 59 50 46 56 46 51 38 38 36 32 31 28 22 26 24 17 28 29 29 19 28 39 38 34
36 35 30 26 28 25 15 22 39 38 39 32 35 40 56 43 50 44 46 52 47 39 36 40 38 34 34 28 24 14 25 22 20 25 36 39 35 36
8 8 11 9 14 19 27 31 25 27 34 25 36 44 23 35 33 46 49 51 45 41 43 42 40 34 33 37 36 25 17 17 20 31 33 33 42 48
7 4 14 12 10 8 15 16 20 29 35 35 35 33 30 34 43 52 53 51 47 47 42 39 35 34 38 42 41 18 21 20 22 20 26 28 37 41
13 16 11 12 5 7 9 11 13 24 27 33 34 30 41 47 51 55 54 47 53 49 38 38 34 31 32 22 16 21 25 19 16 21 23 29 34 30
Wind_Direction_500mb
229 218 207 195 207 235 227 221 245 290 222 228 210 228 236 248 254 262 277 282 277 276 273 274 286 293 295 295 301 306 305 307 302 304 307 313 315 316
239 233 221 209 196 229 227 230 223 241 277 227 228 225 234 228 261 263 269 272 271 273 280 281 284 288 289 290 294 296 299 297 296 298 304 310 312 313
242 238 238 227 217 213 237 222 226 227 232 233 243 232 236 246 242 244 258 275 274 291 279 279 287 293 287 287 289 292 292 290 291 296 303 308 313 314
240 242 239 242 234 219 221 236 226 221 229 224 232 237 246 247 253 255 253 248 270 280 284 270 292 294 287 292 294 294 292 290 293 297 301 306 309 306
250 249 245 245 248 236 229 226 231 230 227 231 230 243 263 262 260 268 262 262 239 243 258 269 276 278 291 299 304 313 300 295 291 295 298 302 316 308
243 255 254 251 251 251 244 237 231 235 238 237 240 235 240 254 261 258 273 272 271 250 252 251 263 275 278 290 293 299 294 284 284 294 305 311 313 303
245 246 256 260 258 257 253 247 241 232 233 239 238 239 226 230 234 250 255 255 269 264 248 253 264 277 278 289 296 296 282 277 287 303 311 316 312 308
251 249 251 257 260 260 257 255 251 245 236 233 238 236 233 225 234 243 238 244 251 239 239 262 265 271 278 290 285 282 274 282 296 309 314 313 306 304
254 255 255 255 255 255 256 257 257 251 246 242 236 230 233 232 227 230 230 236 242 248 260 268 272 260 271 281 277 281 300 310 310 312 322 329 327 325
253 256 259 261 250 252 256 253 253 252 245 241 238 235 227 232 231 238 237 246 254 259 261 269 276 255 257 273 280 285 295 300 310 320 332 335 336 337
251 256 257 259 260 252 247 254 253 257 251 248 242 240 231 230 237 246 257 250 240 265 260 271 259 252 241 259 271 281 286 297 310 313 326 323 325 321
249 255 257 256 257 255 247 246 251 259 253 248 235 234 235 236 233 244 241 244 242 238 258 257 243 226 239 253 257 270 289 294 300 305 312 314 318 312
246 253 257 266 254 249 251 247 257 257 258 253 250 238 232 231 233 241 241 240 240 229 252 247 238 224 235 240 247 263 274 282 287 298 306 304 312 316
246 254 271 268 269 267 252 247 250 252 247 251 251 245 226 214 229 242 241 234 236 242 235 241 225 226 243 252 249 253 259 270 282 295 290 293 296 292
253 252 251 259 259 262 266 261 246 247 240 238 225 225 220 280 254 246 236 227 233 237 227 232 229 245 262 264 258 253 263 274 274 287 289 289 294 307
253 260 262 267 267 263 259 256 257 249 251 244 238 232 270 268 238 230 227 216 220 228 231 236 241 254 261 268 245 249 253 269 272 281 284 292 312 326
264 263 266 268 271 267 265 267 261 258 254 247 235 237 260 241 223 209 214 211 231 226 224 230 232 253 268 286 236 272 233 274 274 274 285 305 311 298
253 258 266 273 274 276 278 275 265 260 249 235 225 230 226 210 208 218 210 220 216 216 211 221 234 227 244 260 270 264 235 260 268 279 296 293 300 311
269 269 271 273 272 280 281 278 265 255 230 221 210 209 206 212 204 200 208 211 201 189 200 227 224 215 222 250 272 250 228 256 286 286 281 307 320 332
269 269 277 287 292 280 276 262 246 239 229 230 228 212 206 184 197 201 211 198 196 201 208 212 215 223 238 242 253 235 245 268 281 281 312 326 336 335
275 323 320 296 274 266 245 281 259 240 239 235 219 201 180 176 201 200 192 197 199 204 213 223 232 237 233 237 244 264 249 247 293 303 315 328 334 333
172 347 303 302 307 284 243 224 212 212 227 231 221 200 210 203 187 182 196 198 201 206 211 220 225 229 233 236 260 235 259 264 288 289 311 319 326 330
199 217 226 207 221 191 161 143 177 174 193 216 190 191 176 169 188 192 196 209 207 205 203 217 221 234 244 237 226 238 251 254 266 288 291 311 324 324
Wind_Speed_850mb
32 32 35 30 21 22 20 20 14 13 27 29 26 25 19 21 26 33 34 36 30 32 32 31 30 31 31 31 32 33 34 33 33 34 35 37 41 38
41 39 37 37 31 28 26 23 21 18 13 8 18 21 22 21 23 25 29 35 38 38 35 30 31 30 30 29 32 36 36 35 34 36 38 41 40 41
53 46 45 37 39 33 34 32 28 24 25 17 16 24 24 24 29 32 33 34 26 20 21 24 26 28 29 30 34 38 37 36 36 37 40 41 44 46
55 56 52 50 48 44 41 37 35 33 32 31 25 26 33 29 25 31 38 23 26 32 25 28 31 34 32 32 35 39 38 37 38 39 40 41 46 51
63 61 58 63 57 52 56 51 44 41 43 45 41 38 40 36 28 25 23 18 20 37 38 32 33 28 30 37 36 28 25 30 33 34 35 40 45 43
67 73 67 65 66 61 59 61 56 48 50 55 49 45 32 37 35 28 28 27 26 24 30 30 31 30 31 32 31 27 25 25 30 33 39 48 47 39
71 77 80 78 74 69 64 61 62 66 58 54 51 44 39 42 47 41 37 25 28 27 30 29 35 37 32 32 31 32 33 31 32 36 45 54 54 52
78 79 86 86 83 76 69 68 65 65 73 71 60 54 46 50 43 41 34 28 33 27 32 36 35 35 30 32 33 34 31 31 30 37 47 52 54 53
82 83 87 93 92 90 86 80 75 71 72 69 70 66 55 49 49 50 44 47 50 41 44 47 35 37 32 31 31 25 30 35 36 39 45 39 38 39
90 90 91 92 88 92 91 91 88 85 85 79 74 66 62 54 57 57 59 57 55 51 44 48 40 35 29 28 30 32 36 38 33 42 40 38 37 36
100 97 102 103 103 95 90 92 92 93 85 88 86 81 73 71 62 58 67 56 46 43 31 44 38 30 27 29 28 31 35 34 37 36 40 36 35 29
105 92 111 110 113 107 104 100 102 104 96 92 99 97 92 85 66 58 63 55 41 34 40 49 44 27 34 29 28 29 28 26 28 30 29 34 30 27
111 107 98 99 104 111 108 109 111 102 104 98 97 106 108 94 70 63 71 63 66 52 51 37 38 40 40 29 26 26 28 31 30 34 37 28 31 34
100 77 73 73 78 80 101 111 105 104 104 106 102 111 120 88 56 77 64 71 65 50 41 43 47 46 42 37 38 31 24 28 28 28 25 32 29 26
103 104 76 57 64 65 75 80 97 102 95 88 79 59 42 55 89 75 68 57 55 51 45 51 42 39 38 38 35 26 25 29 23 26 31 35 40 35
88 86 96 98 103 89 79 67 68 96 95 106 92 73 64 51 64 73 74 58 49 48 56 54 40 37 29 30 26 23 28 30 18 25 35 38 38 22
56 62 67 72 81 93 93 96 93 78 86 98 102 81 62 58 66 71 44 48 39 53 54 42 29 25 20 16 15 12 11 13 22 27 39 38 22 34
58 58 54 56 62 68 75 77 85 91 101 108 90 44 52 77 59 46 49 50 48 41 41 30 27 26 18 16 16 23 13 23 34 39 28 27 40 42
59 62 59 57 56 56 48 47 66 74 86 62 47 48 59 50 46 56 46 51 38 38 36 32 31 28 22 26 24 17 28 29 29 19 28 39 38 34
36 35 30 26 28 25 15 22 39 38 39 32 35 40 56 43 50 44 46 52 47 39 36 40 38 34 34 28 24 14 25 22 20 25 36 39 35 36
8 8 11 9 14 19 27 31 25 27 34 25 36 44 23 35 33 46 49 51 45 41 43 42 40 34 33 37 36 25 17 17 20 31 33 33 42 48
7 4 14 12 10 8 15 16 20 29 35 35 35 33 30 34 43 52 53 51 47 47 42 39 35 34 38 42 41 18 21 20 22 20 26 28 37 41
13 16 11 12 5 7 9 11 13 24 27 33 34 30 41 47 51 55 54 47 53 49 38 38 34 31 32 22 16 21 25 19 16 21 23 29 34 30
Wind_Direction_850mb
229 218 207 195 207 235 227 221 245 290 222 228 210 228 236 248 254 262 277 282 277 276 273 274 286 293 295 295 301 306 305 307 302 304 307 313 315 316
239 233 221 209 196 229 227 230 223 241 277 227 228 225 234 228 261 263 269 272 271 273 280 281 284 288 289 290 294 296 299 297 296 298 304 310 312 313
242 238 238 227 217 213 237 222 226 227 232 233 243 232 236 246 242 244 258 275 274 291 279 279 287 293 287 287 289 292 292 290 291 296 303 308 313 314
240 242 239 242 234 219 221 236 226 221 229 224 232 237 246 247 253 255 253 248 270 280 284 270 292 294 287 292 294 294 292 290 293 297 301 306 309 306
250 249 245 245 248 236 229 226 231 230 227 231 230 243 263 262 260 268 262 262 239 243 258 269 276 278 291 299 304 313 300 295 291 295 298 302 316 308
243 255 254 251 251 251 244 237 231 235 238 237 240 235 240 254 261 258 273 272 271 250 252 251 263 275 278 290 293 299 294 284 284 294 305 311 313 303
245 246 256 260 258 257 253 247 241 232 233 239 238 239 226 230 234 250 255 255 269 264 248 253 264 277 278 289 296 296 282 277 287 303 311 316 312 308
251 249 251 257 260 260 257 255 251 245 236 233 238 236 233 225 234 243 238 244 251 239 239 262 265 271 278 290 285 282 274 282 296 309 314 313 306 304
254 255 255 255 255 255 256 257 257 251 246 242 236 230 233 232 227 230 230 236 242 248 260 268 272 260 271 281 277 281 300 310 310 312 322 329 327 325
253 256 259 261 250 252 256 253 253 252 245 241 238 235 227 232 231 238 237 246 254 259 261 269 276 255 257 273 280 285 295 300 310 320 332 335 336 337
251 256 257 259 260 252 247 254 253 257 251 248 242 240 231 230 237 246 257 250 240 265 260 271 259 252 241 259 271 281 286 297 310 313 326 323 325 321
249 255 257 256 257 255 247 246 251 259 253 248 235 234 235 236 233 244 241 244 242 238 258 257 243 226 239 253 257 270 289 294 300 305 312 314 318 312
246 253 257 266 254 249 251 247 257 257 258 253 250 238 232 231 233 241 241 240 240 229 252 247 238 224 235 240 247 263 274 282 287 298 306 304 312 316
246 254 271 268 269 267 252 247 250 252 247 251 251 245 226 214 229 242 241 234 236 242 235 241 225 226 243 252 249 253 259 270 282 295 290 293 296 292
253 252 251 259 259 262 266 261 246 247 240 238 225 225 220 280 254 246 236 227 233 237 227 232 229 245 262 264 258 253 263 274 274 287 289 289 294 307
253 260 262 267 267 263 259 256 257 249 251 244 238 232 270 268 238 230 227 216 220 228 231 236 241 254 261 268 245 249 253 269 272 281 284 292 312 326
264 263 266 268 271 267 265 267 261 258 254 247 235 237 260 241 223 209 214 211 231 226 224 230 232 253 268 286 236 272 233 274 274 274 285 305 311 298
253 258 266 273 274 276 278 275 265 260 249 235 225 230 226 210 208 218 210 220 216 216 211 221 234 227 244 260 270 264 235 260 268 279 296 293 300 311
269 269 271 273 272 280 281 278 265 255 230 221 210 209 206 212 204 200 208 211 201 189 200 227 224 215 222 250 272 250 228 256 286 286 281 307 320 332
269 269 277 287 292 280 276 262 246 239 229 230 228 212 206 184 197 201 211 198 196 201 208 212 215 223 238 242 253 235 245 268 281 281 312 326 336 335
275 323 320 296 274 266 245 281 259 240 239 235 219 201 180 176 201 200 192 197 199 204 213 223 232 237 233 237 244 264 249 247 293 303 315 328 334 333
172 347 303 302 307 284 243 224 212 212 227 231 221 200 210 203 187 182 196 198 201 206 211 220 225 229 233 236 260 235 259 264 288 289 311 319 326 330
199 217 226 207 221 191 161 143 177 174 193 216 190 191 176 169 188 192 196 209 207 205 203 217 221 234 244 237 226 238 251 254 266 288 291 311 324 324